Showing default

COSMOS 1831, 17586

Orbit data source: Space-Track

COSMOS 1831, 17586 is a payload satellite owned by UNKS (CIS) in LEO that was launched on Fri, 13 Mar 1987 UTC via a TSIKLON-3 launch vehicle from the Plesetsk Missile And Space Complex (PKMTR). Payload-class satellites include a variety of spacecraft equipped with specific instruments for various scientific and technological missions. These include communications satellites like Starlink; space stations such as the ISS; scientific satellites like the Hubble; Earth observation satellites from companies like Planet Labs, Umbra, and HawkEye 360; GPS; miniature CubeSats for education and research; and military/defense satellites.

Loading next visibility...
Identifier
17586, 1987-026E
Orbit
LEO
Country
Flag of CISCIS
Related business
Manufacturer
NPO PM
Mission
Defense Communications
Bus & Motor
STRELA-3, Unknown motor
Mass
225 kg wet, 225 kg dry
Launch date (UTC)
1987-03-13 (39 years ago)
Launch vehicle
TSIKLON-3
Launch site
Plesetsk Missile And Space Complex (PKMTR)
Object type
Payload
Rocket body
Debris
Shape & HBR
Cyl, 0.8 m
Radar Cross Section
1.257 m², Large (>1 m²)

Expand to show TLE details & history
Last TLE update: 20 hours ago

TLE from 20 hours ago
0 COSMOS 1831
1 17586U 87026E   25261.20238956  .00000008  00000-0 -12887-4 0  9990
2 17586  82.5651 345.7833 0015493  29.0277 358.3436 12.65537525779037
Epoch: 2025-09-18T04:51Z
TLE epoch observation values (Epoch: 2025-09-18T04:51:26.457Z)
Latitude
27.15279°
Longitude
-80.62565°
Altitude
1,391.303 km
Speed
7.172 km/s
True Right ascension
23h 18m 24s
True Declination
27° 01' 29"
Sunlit
Object was in full shadow at epoch
Visualization orbit readout
Latitude
Unknown
Longitude
Unknown
Altitude
Unknown
Speed
Unknown
Apparent Right ascension
Unknown
Apparent Declination
Unknown
Sunlit
N/A
Visualization observer readout
Local Sidereal Time
17:29:49
Azimuth
Unknown
Elevation
Unknown
Doppler factor
Unknown
Orbital elements
Apogee altitude
1,409.535 km
Perigee altitude
1,385.441 km
Semi-major axis
7,775.625 km
Eccentricity
0.00155
Inclination
82.5651°
RAAN
345.7833°
Arg. of periapsis
29.0277°
True anomaly
358.33846°
Mean anomaly
358.3436°
Eccentric anomaly
358.34103°
Mean motion
3.16548 °/min
Orbital period
113.73 mins
BSTAR
-0.000012887
Loading maneuver chart data...
Computing Atmospheric mass density...
Loading historical data...
Loading historical data...
Loading historical data...
Loading historical data...
Loading historical data...
Loading historical data...
Loading historical data...

Documentation

Showing up to 5 results
|